LiveATC.Net - Listen to live air traffic control over the Internet!


ICAO: KMMV  IATA: MMV   Airport: Mc Minnville Municipal Airport
City: Mc Minnville   State/Province: Oregon
Country: United States   Continent: North America
KMMV METAR Weather: KMMV 210753Z AUTO 18016G23KT 10SM OVC038 09/03 A3005 RMK AO2 PK WND 19027/0725 RAE00 SLP175 P0000 T00890028 400940044
KMMV Flight Activity (FlightAware)
KMMV Airport Info   (AirNav) (iFlightPlanner)
KMMV VFR Sectional Chart   (iFlightPlanner) 
KMMV IFR Low Chart   (iFlightPlanner) 
KMMV CTAF
Feed Status: DOWN
Last heard on: 2017-11-22 17:40:02 (59 days 15 hours 17 minutes ago)
KMMV CTAF Audio Archives
FacilityFrequency
Mc Minnville CTAF123.000


NOTICE

Unauthorized use prohibited. See LiveATC.net Terms of Service


Find LiveATC Audio Streams


Airport/ARTCC Code

Frequency Search
(e.g., 124.400, 128.75)
Site-wide search
 


Browse LiveATC Feeds
LiveATC Coverage Map
Top 50 LiveATC Feeds
Bad Weather Areas

LiveATC FAQ
Offer a LiveATC Feed
Contact LiveATC.net
Press Inquiries

LiveATC on iPhone
LiveATC on Android

Windows Phone
Windows 8/10

LiveATC Mobile
(Mobile browser)

ATC Audio Archives
Interesting Recordings

LiveATC Forums


Home Page
About LiveATC.net
Make a Donation
Terms of Use
Privacy Policy

Canadian Air Freqs

AIRMETs/SIGMETs

FAA Airport Status
Nat'l Airspace Status
Arrival Demand Charts


Server Software By:
Icecast.org
Liquidsoap